Location: Chartres
(48.4439°N, 1.4890°E)
Time: 17:30:56
(UTC+02:00)

ISS - Visible Passes

Search period start: 25 July 2021 00:00
Search period end: 04 August 2021 00:00
Orbit: 419 x 421 km, 51.6° (Epoch: 25 July)

Date Brightness Start Highest point End Pass type
(mag) Time Alt. Az. Time Alt. Az. Time Alt. Az.
25 Jul -1.0 01:31:37 10° W 01:31:45 11° W 01:31:45 11° W visible
25 Jul -3.6 23:06:58 10° WNW 23:10:21 70° NNE 23:12:58 16° E visible
26 Jul -2.1 00:44:00 10° W 00:45:55 24° WSW 00:45:55 24° WSW visible
26 Jul -3.2 22:19:38 10° WNW 22:22:59 57° NNE 22:26:20 10° E visible
26 Jul -3.3 23:56:33 10° WNW 23:59:46 44° SSW 00:00:06 42° SSW visible
27 Jul -3.7 23:09:09 10° WNW 23:12:30 64° SSW 23:14:20 24° SE visible
28 Jul -1.0 00:47:08 10° WSW 00:47:17 10° WSW 00:47:17 10° WSW visible
28 Jul -3.7 22:21:48 10° WNW 22:25:11 88° SSW 22:28:35 10° ESE visible
28 Jul -1.9 23:59:07 10° W 00:01:33 20° SW 00:01:33 20° SW visible
29 Jul -2.5 23:11:29 10° W 23:14:28 29° SW 23:15:51 21° S visible
30 Jul -3.0 22:23:59 10° WNW 22:27:13 43° SSW 22:30:11 12° SE visible
31 Jul -1.3 23:14:35 10° WSW 23:16:12 13° SW 23:17:32 11° SSW visible
01 Aug -1.7 22:26:31 10° W 22:29:02 19° SW 22:31:32 10° S visible
